19P/Borrelly (2008)

Japanese version
Home page
Total 6,336 html files since Dec. 4, 1995
Updated on October 7, 2008

---------------------------------------------------------------------

* Profile

* Pictures

* Orbital Elements

Epoch 2008 Aug. 2.0 TT = JDT 2454680.5
T 2008 July 22.32968 TT                                 MPC
q   1.3547768            (2000.0)            P               Q
n   0.14383090     Peri.  353.37824     +0.34598066     -0.80092461
a   3.6077346      Node    75.44469     +0.88232010     +0.10060971
e   0.6244799      Incl.   30.32428     +0.31907464     +0.59025203
P   6.85
From 1230 observations 1994 June 12-2007 Aug. 31, mean residual 0".69.  Non-
   gravitational parameters A1 = +0.27 +/- 0.01, A2 = -0.0473 +/- 0.0005.

* Finding Charts

* Magnitudes Graph

        m1 = 6.5 + 5 log d + 17.0 log r

---------------------------------------------------------------------

The orbital elements are published on M.P.E.C. 2007-Q46.
The charts are made with StellaNavigator Ver.2.0 for Windows (AstroArts / ASCII).
The magnitudes graphs are made with Comet for Windows.

---------------------------------------------------------------------

Copyright(C) 1995-2008 Seiichi Yoshida (comet@aerith.net). All rights reserved.